Weather History for Carson City, NV

Change the Weather History Date:

Sunday, August 25, 2013

  Actual Average Record
Temperature  
Mean Temperature 63 °F -  
Max Temperature 78 °F 85 °F 89 °F (2011)
Min Temperature 48 °F 47 °F 48 °F (2013)
Degree Days  
Heating Degree Days 2    
Growing Degree Days 13 (Base 50)    
Moisture  
Dew Point 37 °F    
Average Humidity 38    
Maximum Humidity 71    
Minimum Humidity 18    
Precipitation  
Precipitation 0.00 in - - ()
Sea Level Pressure  
Sea Level Pressure 30.05 in    
Wind  
Wind Speed 4 mph (SW)    
Max Wind Speed 17 mph    
Max Gust Speed 26 mph    
Visibility 6 miles    
Events      
Averages and records for this station are not official NWS values.
T = Trace of Precipitation, MM = Missing Value Source: NWS Daily Summary

Daily Weather History Graph

Daily Weather History Graph

Search for Another Location

Airport:

Trip Planner

Search our weather history database for the weather conditions in past years. The results will help you decide how hot, cold, wet, or windy it might be!

Date:

Astronomy

Aug. 25, 2013 Rise Set
Actual Time 6:21 AM PDT 7:39 PM PDT
Civil Twilight 5:53 AM PDT 8:07 PM PDT
Nautical Twilight 5:20 AM PDT 8:40 PM PDT
Astronomical Twilight 4:45 AM PDT 9:15 PM PDT
Moon 10:16 PM PDT (8/25) 11:26 AM PDT (8/25)
Length of Visible Light 14h 13m
Length of Day
13h 18m
Waning Gibbous, 75% of the Moon is Illuminated
Aug 25
Waning Gibbous
Aug 28
Last Quarter
Sep 5
New
Sep 12
First Quarter
Sep 19
Full

Hourly Weather History & Observations

Time (PDT) Temp. Dew Point Humidity Pressure Visibility Wind Dir Wind Speed Gust Speed Precip Events Conditions
12:15 AM 62.6 °F 35.6 °F 37% 30.04 in 7.0 mi Calm Calm - N/A   Overcast
12:35 AM 60.8 °F 35.6 °F 39% 30.04 in 7.0 mi North 3.5 mph - N/A   Overcast
12:55 AM 60.8 °F 35.6 °F 39% 30.04 in 5.0 mi Calm Calm - N/A   Haze
1:15 AM 57.2 °F 37.4 °F 48% 30.03 in 5.0 mi South 3.5 mph - N/A   Haze
1:35 AM 59.0 °F 37.4 °F 45% 30.03 in 5.0 mi Calm Calm - N/A   Haze
1:55 AM 57.2 °F 37.4 °F 48% 30.03 in 5.0 mi SSE 3.5 mph - N/A   Haze
2:15 AM 57.2 °F 37.4 °F 48% 30.03 in 5.0 mi Calm Calm - N/A   Haze
2:35 AM 57.2 °F 37.4 °F 48% 30.04 in 4.0 mi Calm Calm - N/A   Haze
2:55 AM 57.2 °F 35.6 °F 44% 30.04 in 3.0 mi West 3.5 mph - N/A   Haze
3:15 AM 57.2 °F 35.6 °F 44% 30.04 in 3.0 mi WNW 4.6 mph - N/A   Haze
3:35 AM 55.4 °F 35.6 °F 47% 30.04 in 3.0 mi North 3.5 mph - N/A   Haze
3:55 AM 51.8 °F 37.4 °F 58% 30.04 in 2.5 mi Calm Calm - N/A   Haze
4:15 AM 53.6 °F 37.4 °F 54% 30.04 in 2.5 mi Calm Calm - N/A   Haze
4:35 AM 51.8 °F 37.4 °F 58% 30.04 in 2.5 mi Calm Calm - N/A   Haze
4:55 AM 50.0 °F 37.4 °F 62% 30.04 in 3.0 mi Calm Calm - N/A   Haze
5:15 AM 50.0 °F 37.4 °F 62% 30.05 in 2.5 mi North 6.9 mph - N/A   Haze
5:35 AM 50.0 °F 37.4 °F 62% 30.04 in 2.5 mi Calm Calm - N/A   Haze
5:55 AM 48.2 °F 37.4 °F 66% 30.05 in 2.5 mi Calm Calm - N/A   Haze
6:15 AM 50.0 °F 37.4 °F 62% 30.06 in 2.5 mi Calm Calm - N/A   Haze
6:35 AM 50.0 °F 37.4 °F 62% 30.07 in 1.5 mi Calm Calm - N/A   Haze
6:55 AM 48.2 °F 39.2 °F 71% 30.08 in 1.5 mi SE 3.5 mph - N/A   Haze
7:15 AM 48.2 °F 39.2 °F 71% 30.08 in 1.8 mi Calm Calm - N/A   Haze
7:35 AM 53.6 °F 39.2 °F 58% 30.08 in 1.8 mi Calm Calm - N/A   Haze
7:55 AM 55.4 °F 39.2 °F 54% 30.08 in 1.8 mi East 3.5 mph - N/A   Haze
8:15 AM 55.4 °F 41.0 °F 58% 30.08 in 1.8 mi Calm Calm - N/A   Haze
8:35 AM 55.4 °F 39.2 °F 54% 30.08 in 1.5 mi Calm Calm - N/A   Haze
8:55 AM 59.0 °F 35.6 °F 42% 30.08 in 1.5 mi Calm Calm - N/A   Haze
9:15 AM 60.8 °F 37.4 °F 42% 30.08 in 1.5 mi Calm Calm - N/A   Haze
9:35 AM 64.4 °F 37.4 °F 37% 30.08 in 1.5 mi Calm Calm - N/A   Haze
9:55 AM 66.2 °F 37.4 °F 35% 30.07 in 1.8 mi Calm Calm - N/A   Haze
10:15 AM 68.0 °F 35.6 °F 30% 30.07 in 2.5 mi Calm Calm - N/A   Haze
10:35 AM 71.6 °F 35.6 °F 27% 30.07 in 2.5 mi SSW 6.9 mph - N/A   Haze
10:55 AM 73.4 °F 35.6 °F 25% 30.07 in 4.0 mi SSW 9.2 mph - N/A   Haze
11:15 AM 75.2 °F 35.6 °F 24% 30.06 in 5.0 mi South 11.5 mph 18.4 mph N/A   Haze
11:35 AM 75.2 °F 35.6 °F 24% 30.05 in 5.0 mi South 8.1 mph 17.3 mph N/A   Haze
11:55 AM 75.2 °F 33.8 °F 22% 30.05 in 6.0 mi ESE 4.6 mph - N/A   Haze
12:15 PM 75.2 °F 32.0 °F 21% 30.04 in 7.0 mi South 6.9 mph 16.1 mph N/A   Clear
12:35 PM 77.0 °F 35.6 °F 22% 30.04 in 7.0 mi WSW 11.5 mph 19.6 mph N/A   Clear
12:55 PM 77.0 °F 35.6 °F 22% 30.04 in 7.0 mi SW 5.8 mph 17.3 mph N/A   Clear
1:15 PM 77.0 °F 35.6 °F 22% 30.04 in 5.0 mi SSW 9.2 mph - N/A   Haze
1:35 PM 78.8 °F 32.0 °F 18% 30.03 in 5.0 mi SSW 9.2 mph 16.1 mph N/A   Haze
1:55 PM 77.0 °F 35.6 °F 22% 30.03 in 9.0 mi SW 12.7 mph 19.6 mph N/A   Partly Cloudy
2:15 PM 77.0 °F 35.6 °F 22% 30.03 in 10.0 mi SW 9.2 mph 16.1 mph N/A   Partly Cloudy
2:35 PM 77.0 °F 35.6 °F 22% 30.03 in 9.0 mi WSW 15.0 mph 25.3 mph N/A   Partly Cloudy
2:55 PM 75.2 °F 35.6 °F 24% 30.03 in 7.0 mi SW 10.4 mph 19.6 mph N/A   Clear
3:15 PM 77.0 °F 35.6 °F 22% 30.03 in 6.0 mi WSW 12.7 mph 23.0 mph N/A   Haze
3:35 PM 77.0 °F 35.6 °F 22% 30.03 in 9.0 mi West 12.7 mph 20.7 mph N/A   Clear
3:55 PM 77.0 °F 37.4 °F 24% 30.03 in 10.0 mi West 15.0 mph 21.9 mph N/A   Clear
4:15 PM 77.0 °F 37.4 °F 24% 30.02 in 10.0 mi WSW 15.0 mph 24.2 mph N/A   Clear
4:35 PM 77.0 °F 37.4 °F 24% 30.02 in 10.0 mi West 15.0 mph 25.3 mph N/A   Clear
4:55 PM 77.0 °F 37.4 °F 24% 30.02 in 10.0 mi WSW 17.3 mph 25.3 mph N/A   Clear
5:15 PM 77.0 °F 35.6 °F 22% 30.02 in 10.0 mi WSW 16.1 mph 26.5 mph N/A   Clear
5:35 PM 77.0 °F 35.6 °F 22% 30.02 in 10.0 mi WSW 15.0 mph 23.0 mph N/A   Clear
5:55 PM 75.2 °F 35.6 °F 24% 30.02 in 10.0 mi WSW 8.1 mph 20.7 mph N/A   Clear
6:15 PM 75.2 °F 35.6 °F 24% 30.02 in 10.0 mi SW 8.1 mph 18.4 mph N/A   Clear
6:35 PM 73.4 °F 37.4 °F 27% 30.02 in 10.0 mi WSW 10.4 mph 18.4 mph N/A   Clear
6:55 PM 73.4 °F 37.4 °F 27% 30.03 in 10.0 mi West 10.4 mph - N/A   Clear
7:15 PM 71.6 °F 37.4 °F 29% 30.03 in 10.0 mi WSW 9.2 mph 17.3 mph N/A   Clear
7:35 PM 71.6 °F 35.6 °F 27% 30.04 in 10.0 mi West 8.1 mph 16.1 mph N/A   Clear
7:55 PM 69.8 °F 37.4 °F 31% 30.05 in 10.0 mi West 8.1 mph - N/A   Clear
8:15 PM 68.0 °F 37.4 °F 33% 30.05 in 10.0 mi West 5.8 mph - N/A   Scattered Clouds
8:35 PM 68.0 °F 37.4 °F 33% 30.06 in 10.0 mi West 6.9 mph - N/A   Mostly Cloudy
8:55 PM 66.2 °F 37.4 °F 35% 30.07 in 10.0 mi South 3.5 mph - N/A   Overcast
9:15 PM 66.2 °F 39.2 °F 37% 30.08 in 10.0 mi SW 3.5 mph - N/A   Overcast
9:35 PM 64.4 °F 39.2 °F 40% 30.08 in 10.0 mi Calm Calm - N/A   Overcast
9:55 PM 59.0 °F 39.2 °F 48% 30.09 in 10.0 mi East 4.6 mph - N/A   Overcast
10:15 PM 59.0 °F 39.2 °F 48% 30.09 in 10.0 mi East 4.6 mph - N/A   Overcast
10:35 PM 62.6 °F 39.2 °F 42% 30.09 in 10.0 mi Calm Calm - N/A   Overcast
10:55 PM 62.6 °F 39.2 °F 42% 30.09 in 10.0 mi Calm Calm - N/A   Overcast
11:15 PM 62.6 °F 39.2 °F 42% 30.09 in 9.0 mi Calm Calm - N/A   Overcast
11:35 PM 59.0 °F 39.2 °F 48% 30.09 in 9.0 mi Calm Calm - N/A   Overcast
11:55 PM 59.0 °F 39.2 °F 48% 30.09 in 10.0 mi Calm Calm - N/A   Overcast